Home   Weather   Yuma   Past weeks

Flag for USA Past Weather in Yuma, Arizona, USA — Yesterday and Last 2 Weeks

Now
64 °F

Clear.


Feels Like: 64 °F
Forecast: 50 / 69 °F
Wind: 5 mph from Northwest

Location: Yuma Marine Corps Air Station

Current Time: Dec 3, 2016 at 7:12:44 pm

Latest Report: Dec 3, 2016 at 5:57 pm


Visibility: 10 mi

Pressure: 29.98 "Hg

Humidity: 12%

Dew Point: 11 °F

Location of YumaLocation

Past Weather in Yuma — Graph

°F

Yuma Temperature Yesterday

Maximum temperature yesterday: 66 °F (at 2:57 pm)
Minimum temperature yesterday: 50 °F (at 4:57 am)
Average temperature yesterday: 58 °F

High & Low Weather Summary for the Past Weeks

 TemperatureHumidityPressure
High78 °F (Nov 23, 2:57 pm)93% (Nov 21, 5:57 am)30.19 "Hg (Nov 21, 5:57 am)
Low43 °F (Dec 1, 2:57 am)9% (Nov 25, 3:57 pm)29.75 "Hg (Nov 28, 3:57 pm)
Average60 °F37%29.99 "Hg
* Reported Nov 18 5:57 pm — Dec 3 5:57 pm, Yuma, Weather by CustomWeather, © 2016

Note: Actual official high and low records may vary slightly from our data, if they occured in-between our weather recording intervals... More about our weather records

Advertising

Yuma Weather History for the Previous 24 Hours

Scroll right to see more
 ConditionsComfort  
Time TempWeatherWind HumidityBarometerVisibility
5:57 pm
Sat, Dec 3
64 °FClear.5 mph12%29.98 "Hg10 mi
4:57 pm66 °FSunny.9 mph11%29.98 "Hg10 mi
3:57 pm68 °FSunny.16 mph12%29.98 "Hg10 mi
2:57 pm67 °FSunny.15 mph13%29.98 "Hg10 mi
1:57 pm66 °FSunny.20 mph14%30.00 "Hg10 mi
12:57 pm65 °FSunny.16 mph14%30.03 "Hg10 mi
11:57 am63 °FSunny.16 mph16%30.05 "Hg10 mi
10:57 am61 °FSunny.17 mph17%30.07 "Hg10 mi
9:57 am58 °FSunny.20 mph18%30.06 "Hg10 mi
8:57 am56 °FSunny.10 mph20%30.05 "Hg10 mi
7:57 am54 °FSunny.15 mph21%30.04 "Hg10 mi
6:57 am53 °FClear.13 mph23%30.03 "Hg10 mi
5:57 am53 °FClear.14 mph23%30.00 "Hg10 mi
4:57 am54 °FClear.15 mph22%29.99 "Hg10 mi
3:57 am54 °FClear.12 mph22%29.99 "Hg10 mi
2:57 am55 °FClear.17 mph22%29.98 "Hg10 mi
1:57 am56 °FClear.21 mph22%29.97 "Hg10 mi
12:57 am56 °FClear.12 mph22%29.98 "Hg10 mi
11:57 pm
Fri, Dec 2
57 °FClear.15 mph22%29.98 "Hg10 mi
10:57 pm57 °FClear.14 mph22%29.98 "Hg10 mi
9:57 pm57 °FClear.10 mph22%29.97 "Hg10 mi
8:57 pm58 °FClear.13 mph23%29.97 "Hg10 mi
7:57 pm59 °FClear.10 mph23%29.96 "Hg10 mi
Weather by CustomWeather, © 2016

See weather overviewHow to use our weather pages